Maryland Science Center, MD

11:20 AM EST on December 12, 2019 (GMT -0500)
Maryland Science Center

Weather History for KDMH - October, 2019

Change the Weather History Date:

Sunday, October 6, 2019

  Actual Average Record
Temperature  
Mean Temperature 68 °F 64 °F  
Max Temperature 73 °F 72 °F 88 °F (2013)
Min Temperature 62 °F 55 °F 46 °F (1999)
Degree Days  
Heating Degree Days 0 4  
Month to date heating degree days 7 19  
Since 1 July heating degree days 7 37  
Cooling Degree Days 3 2  
Month to date cooling degree days 47 16  
Year to date cooling degree days 2036 1641  
Growing Degree Days 18 (Base 50)    
Moisture  
Dew Point 58 °F    
Average Humidity 69    
Maximum Humidity 73    
Minimum Humidity 64    
Precipitation  
Precipitation 0.00 in 0.11 in 0.87 in (2006)
Month to date precipitation 0.00 0.67  
Year to date precipitation 30.87 32.13  
Sea Level Pressure  
Sea Level Pressure 30.26 in    
Wind  
Wind Speed - (North)    
Max Wind Speed -    
Max Gust Speed -    
T = Trace of Precipitation, MM = Missing Value Source: NWS Daily Summary

Daily Weather History Graph

Daily Weather History Graph

Search for Another Location

Airport or City:

Astronomy

Oct. 06, 2019 Rise Set
Actual Time 7:07 AM EDT 6:41 PM EDT
Civil Twilight 6:40 AM EDT 7:08 PM EDT
Nautical Twilight 6:09 AM EDT 7:39 PM EDT
Astronomical Twilight 5:38 AM EDT 8:10 PM EDT
Moon 3:16 PM EDT (10/6) 12:06 AM EDT (10/6)
Length of Visible Light 12h 27m
Length of Day
11h 34m
First Quarter, 59% of the Moon is Illuminated
Oct 6
First Quarter
Oct 13
Full
Oct 21
Last Quarter
Oct 27
New
Nov 4
First Quarter

Hourly Weather History & Observations

Time (EDT) Temp. Dew Point Humidity Pressure Visibility Wind Dir Wind Speed Gust Speed Precip Events Conditions
12:54 AM 62.1 °F 50.0 °F 65% 30.31 in - North - - N/A   Unknown
1:54 AM 63.0 °F 51.1 °F 65% 30.31 in - North - - N/A   Unknown
2:54 AM 63.0 °F 52.0 °F 67% 30.30 in - North - - N/A   Unknown
3:54 AM 64.0 °F 53.1 °F 67% 30.28 in - North - - N/A   Unknown
4:54 AM 64.0 °F 54.0 °F 70% 30.28 in - North - - N/A   Unknown
5:54 AM 64.9 °F 55.0 °F 70% 30.27 in - North - - N/A   Unknown
6:54 AM 64.9 °F 55.9 °F 73% 30.28 in - North - - N/A   Unknown
7:54 AM 64.9 °F 55.9 °F 73% 30.28 in - North - - N/A   Unknown
8:54 AM 66.9 °F 57.0 °F 70% 30.28 in - North - - N/A   Unknown
9:54 AM 68.0 °F 59.0 °F 73% 30.29 in - North - - N/A   Unknown
10:54 AM 70.0 °F 60.1 °F 71% 30.28 in - North - - N/A   Unknown
12:54 PM 71.1 °F 59.0 °F 66% 30.27 in - North - - N/A   Unknown
1:54 PM 73.0 °F 60.1 °F 64% 30.25 in - North - - N/A   Unknown
4:54 PM 73.0 °F 61.0 °F 66% 30.23 in - North - - N/A   Unknown
5:54 PM 73.0 °F 61.0 °F 66% 30.22 in - North - - N/A   Unknown
6:54 PM 72.0 °F 61.0 °F 68% 30.21 in - North - - N/A   Unknown
7:54 PM 72.0 °F 61.0 °F 68% 30.22 in - North - - N/A   Unknown
8:54 PM 72.0 °F 61.0 °F 68% 30.22 in - North - - N/A   Unknown
9:54 PM 72.0 °F 61.0 °F 68% 30.23 in - North - - N/A   Unknown
10:54 PM 72.0 °F 61.0 °F 68% 30.22 in - North - - N/A   Unknown
11:54 PM 72.0 °F 62.1 °F 71% 30.21 in - North - - N/A   Unknown